Location: Waco, TX
(31.5480°N, 97.1670°W)
Time: 00:24:19
(UTC-05:00)

ISS - Pass Details

Date: 17 May 2018
Orbit: 402 x 407 km, 51.6° (Epoch: 24 May)

Event Time Altitude Azimuth Distance (km) Brightness Sun altitude
Rises 23:12:09 0° 236° (SW) 2,305 - -29.8°
Reaches altitude 10° 23:14:16 10° 243° (WSW) 1,448 - -30.1°
Maximum altitude 23:17:24 45° 318° (NW) 554 - -30.4°
Drops below altitude 10° 23:20:33 10° 33° (NNE) 1,453 - -30.8°
Sets 23:22:41 0° 39° (NE) 2,314 - -31.1°
